Tracking 19903 objects as of 16-Oct-2019
HD Live streaming from Space Station
objects crossing your sky now

FENGYUN 1C DEB

Track FENGYUN 1C DEB now!
10-day predictions


NORAD ID: 33731
Int'l Code: 1999-025DHU
Perigee: 842.9 km
Apogee: 1,050.3 km
Inclination: 99.4 °
Period: 103.8 minutes
Semi major axis: 7317 km
RCS: 0.0076 m2 (small)
Launch date: May 10, 1999
Source: People's Republic of China (PRC)
Launch site: Taiyaun Space Center, China (TSC)

Note: This is SATELLITE DEBRIS
aabbcc
Your satellite tracking list
Your tracking list is empty




NASA's NSSDC Master Catalog

Two Line Element Set (TLE):
1 33731U 99025DHU 19287.36050576  .00000641  00000-0  54321-3 0  9990
2 33731  99.3579 249.0516 0141753 331.2450 189.5607 13.86911859592314
Source of the keplerian elements: AFSPC